GFSSGP_sfc_thetae_156.txt.gz
Theta_e
321 320 323 319 306 306 301 304 309 307 311 318 322 328 324 326 322 314 326 333 335 335 336 335 341 345 348 350 352 353 353 354 355 355 353 354 354 355 355 355 356 355 355 354 352 350 349 348 351
318 319 320 313 303 299 302 308 306 313 319 325 325 327 324 319 326 320 325 327 334 331 329 329 334 338 341 343 344 346 350 351 353 354 354 353 353 354 355 355 355 355 355 354 353 351 351 351 350
320 320 311 308 304 299 302 308 310 316 320 321 319 323 320 319 322 318 320 326 334 328 323 323 328 331 334 335 336 339 341 344 350 351 352 353 354 354 353 354 353 354 354 354 354 353 353 351 348
314 315 313 303 302 307 307 309 312 314 315 318 320 315 318 319 320 317 323 328 328 326 320 320 323 325 327 329 330 332 334 338 342 345 349 350 351 352 352 353 352 354 354 353 353 354 353 350 346
314 311 304 303 303 307 309 310 311 311 311 314 319 316 314 315 319 320 323 324 323 322 323 319 324 322 322 323 325 325 327 330 334 339 341 343 346 348 350 350 351 351 352 353 353 353 352 349 346
306 310 301 300 304 308 308 310 311 311 312 314 318 316 314 318 319 319 321 319 320 320 322 321 324 325 322 321 320 321 322 323 325 329 331 332 337 342 346 348 348 348 349 349 350 350 349 349 345
305 304 302 303 303 306 307 311 310 310 312 308 318 311 315 315 318 318 318 319 319 319 320 322 320 320 324 323 321 322 322 324 326 328 330 329 333 337 343 345 346 347 347 347 347 347 347 347 345
307 305 301 303 302 303 307 309 311 310 305 313 313 309 310 314 316 316 316 316 318 318 318 318 319 318 320 320 322 324 323 324 326 327 328 327 332 336 340 342 344 345 346 346 346 345 345 345 343
310 300 298 301 302 303 307 306 310 310 307 309 312 314 314 316 315 313 314 313 314 315 316 317 315 315 317 317 317 323 324 325 325 324 325 323 321 323 326 328 335 340 343 343 343 343 342 342 340
305 301 302 306 306 305 306 306 306 306 306 305 307 311 312 313 313 311 311 309 311 311 312 312 313 313 314 313 316 318 317 318 318 321 318 320 321 320 324 327 330 338 340 340 341 341 340 340 343
305 301 305 306 305 306 305 305 307 306 304 306 305 306 309 310 310 309 308 308 309 310 311 310 313 314 313 312 314 313 314 315 316 316 317 318 318 320 319 319 321 327 335 341 342 341 340 340 341
300 304 304 304 305 303 303 306 305 305 305 309 308 309 308 308 307 307 307 307 308 308 309 309 310 311 313 312 312 312 312 313 312 312 316 314 313 314 315 316 317 318 321 324 337 341 340 340 340
303 304 305 305 304 303 305 303 303 304 307 308 308 307 307 306 306 306 307 307 308 307 309 309 309 310 310 311 311 312 312 312 312 312 314 312 312 311 312 313 315 316 318 318 319 334 338 338 339
304 303 303 304 304 304 301 301 303 304 305 304 305 305 305 305 306 306 307 306 307 307 307 309 308 310 310 309 310 310 312 311 311 311 313 313 312 311 310 310 312 313 315 317 317 317 323 332 333
303 298 301 302 303 301 303 298 299 305 304 303 303 304 304 305 305 305 305 306 306 306 307 308 308 309 308 308 308 309 309 309 308 310 311 311 311 309 308 307 308 310 311 311 312 314 318 324 329
299 299 294 302 303 303 301 294 302 304 303 301 302 303 303 303 304 304 305 304 305 305 305 307 307 307 306 307 307 307 308 307 307 307 307 310 307 306 306 304 304 305 305 305 307 311 313 315 322
299 293 296 299 303 302 300 296 301 304 303 302 302 302 302 303 303 304 304 303 304 304 305 305 306 305 305 306 305 306 307 306 305 305 305 305 305 306 301 301 302 302 302 303 305 307 310 312 313
293 294 297 297 301 301 299 298 302 303 303 302 303 303 303 303 303 302 303 303 304 304 305 304 304 304 304 303 302 302 303 303 303 303 303 303 302 302 299 298 299 302 302 301 302 303 306 306 309
298 296 295 297 300 299 298 298 300 303 302 301 302 302 302 303 301 301 303 303 304 304 303 303 302 302 301 300 298 298 298 299 300 301 300 300 298 299 297 297 297 298 298 299 301 302 302 303 307
296 294 293 296 299 298 297 297 301 302 303 303 302 303 303 301 300 299 301 302 303 302 302 302 301 301 299 298 298 298 298 298 299 297 297 296 296 296 295 295 294 295 295 297 298 301 301 302 305
294 292 292 293 297 298 296 294 297 301 303 304 304 304 304 303 300 298 299 301 303 301 301 300 300 299 299 298 298 296 297 296 294 294 293 293 294 295 294 293 293 292 293 293 295 297 298 298 303
290 296 295 294 292 287 295 285 293 296 298 301 302 303 302 300 299 299 299 300 300 300 301 300 300 298 297 298 296 294 292 290 291 291 291 292 293 292 293 293 292 291 292 293 295 298 298 300 299
292 297 294 293 290 289 289 287 291 296 295 299 300 301 300 300 299 298 298 299 299 300 300 300 299 297 297 297 295 293 291 292 292 291 290 290 291 291 291 291 290 289 291 292 292 294 296 298 300
297 294 293 293 291 284 289 288 289 294 297 299 300 300 300 299 298 298 298 299 299 300 299 299 298 295 296 295 294 292 291 290 289 289 288 288 289 289 290 289 289 289 289 289 291 293 294 296 299
294 290 283 282 282 282 292 289 292 297 299 300 299 299 299 298 297 296 296 297 296 296 296 296 293 293 294 294 292 291 290 290 288 287 287 286 286 287 287 288 286 286 287 288 290 291 292 293 297
292 291 285 278 279 282 289 284 292 297 299 301 301 300 298 297 298 296 295 294 293 294 294 293 291 291 293 292 291 290 289 288 288 287 287 286 286 287 288 287 286 286 286 287 288 288 289 290 291
290 288 293 287 288 284 287 291 296 297 295 294 297 297 296 297 296 294 293 292 292 293 292 291 289 290 291 291 290 288 288 287 287 287 286 286 286 286 286 286 286 285 285 285 285 285 285 287 287
292 294 286 289 279 278 284 286 288 293 295 293 291 291 294 295 296 294 292 291 288 290 292 289 287 287 289 290 288 286 287 287 286 285 284 284 285 285 285 284 284 285 285 284 285 283 284 284 284
291 290 290 290 288 280 279 285 296 296 298 292 292 291 289 293 286 291 290 288 289 286 290 290 285 283 284 287 288 286 285 286 286 285 285 284 283 283 283 283 283 283 283 283 283 283 282 282 283
294 291 290 284 283 287 285 284 299 298 300 300 296 294 292 290 288 285 286 286 285 286 287 287 288 286 283 284 285 287 285 284 285 285 286 285 283 282 282 282 281 281 282 282 281 281 281 280 280

GFSSGP_sfc_thetae_159.txt.gz
Theta_e
317 311 311 312 297 295 292 296 299 302 307 323 328 323 319 320 318 311 327 335 334 329 331 334 341 344 345 346 347 349 352 352 354 355 354 353 353 354 354 354 354 354 354 353 352 352 351 351 350
314 314 309 303 294 288 292 303 305 312 318 323 324 323 321 317 322 321 324 327 329 326 325 329 335 337 339 340 341 342 345 348 351 351 354 354 354 354 354 354 353 354 353 353 352 351 352 351 348
315 315 301 298 293 290 291 302 307 312 319 317 315 316 316 315 319 317 321 323 324 319 321 324 329 332 333 334 335 337 339 342 344 347 350 351 352 353 353 352 352 353 352 352 352 351 352 350 346
307 303 302 294 292 297 298 301 309 308 310 318 316 309 313 315 318 319 322 324 319 316 317 323 327 326 327 329 330 331 332 336 339 341 342 344 347 350 350 350 351 352 352 352 352 352 351 348 346
301 299 293 293 295 300 301 305 308 306 310 317 318 311 310 315 319 321 319 320 317 317 317 319 326 325 324 323 324 325 326 327 329 333 331 334 339 343 346 347 348 349 351 352 351 351 349 347 346
296 298 290 289 294 301 301 305 308 309 312 315 313 311 309 317 317 318 318 315 316 315 316 316 322 326 323 322 322 324 326 328 329 330 329 330 334 337 341 345 346 346 347 347 348 347 347 347 346
294 292 289 292 295 299 302 306 305 304 305 311 315 308 309 313 316 316 314 313 314 313 313 313 313 316 321 324 324 325 326 327 328 329 327 328 328 330 334 340 344 345 345 345 345 345 344 345 345
296 294 290 291 293 295 303 306 306 304 304 312 313 307 305 311 315 313 312 311 310 310 309 310 310 310 309 310 324 325 327 325 327 324 325 325 324 326 327 328 331 335 340 343 344 343 343 343 342
298 290 288 292 295 296 304 302 304 305 304 308 310 310 311 313 313 309 308 307 307 308 307 307 307 308 308 309 315 316 321 321 321 317 320 318 316 316 319 325 327 330 333 340 341 341 341 340 339
295 289 292 297 296 297 302 302 303 301 302 304 306 311 312 311 308 306 304 303 303 303 304 306 306 306 306 311 308 308 312 310 311 310 311 313 312 314 318 319 324 323 326 329 337 338 338 338 340
296 291 296 298 299 299 297 299 301 301 298 301 303 304 307 307 305 302 302 303 302 303 304 304 305 306 305 306 306 306 307 307 308 308 310 309 310 310 311 312 313 314 320 317 319 323 336 337 339
292 299 299 297 298 298 296 297 300 298 300 306 303 305 304 303 302 301 301 301 302 303 303 303 304 304 305 305 305 305 305 306 305 307 308 306 306 306 307 308 310 311 313 313 315 317 322 335 340
297 298 300 299 299 297 299 297 299 300 303 305 305 305 302 301 300 301 301 302 301 302 302 302 303 303 304 303 303 304 305 304 305 305 308 307 305 305 306 306 307 307 310 310 310 311 314 316 323
299 297 297 298 298 298 296 296 297 299 302 303 303 300 300 300 300 300 300 299 300 301 302 302 303 303 302 301 301 302 302 303 303 304 305 306 305 303 304 304 305 304 303 303 304 305 309 312 316
299 294 295 296 296 296 297 292 294 301 302 300 300 300 299 300 300 298 298 298 298 299 301 301 302 302 300 300 301 301 302 303 302 302 303 304 302 302 301 300 300 300 300 301 302 303 305 307 312
294 292 287 296 297 297 295 287 296 299 299 296 298 299 299 299 299 298 298 298 299 299 299 301 303 300 300 300 299 300 300 300 300 300 301 301 302 300 298 298 297 298 299 300 300 301 302 304 308
290 285 288 293 297 295 292 288 295 299 298 297 297 297 297 297 297 297 297 297 298 299 299 299 300 299 299 298 298 298 299 298 299 299 298 298 296 298 296 296 297 298 299 299 300 300 300 300 301
286 288 288 287 293 294 290 291 294 297 297 296 295 295 296 296 296 298 298 298 298 298 299 299 299 298 297 296 296 297 297 297 298 295 296 294 295 295 294 295 295 297 296 297 298 298 300 300 300
293 291 288 290 295 292 290 289 291 297 296 294 295 295 295 295 296 298 298 298 297 297 297 297 297 296 296 295 294 294 293 294 294 294 293 293 293 293 293 294 293 294 293 294 295 296 297 299 301
293 290 288 291 295 294 290 290 292 295 296 296 295 296 293 294 295 297 297 296 296 296 296 295 295 295 294 294 294 293 292 292 292 292 291 292 292 292 292 293 291 292 291 292 293 294 294 297 299
291 289 288 288 292 291 291 288 291 295 297 299 299 297 294 293 294 295 297 295 295 294 293 294 294 294 294 293 292 291 291 291 290 289 290 290 292 292 292 291 290 289 290 290 292 293 294 294 298
287 293 293 291 287 281 290 280 288 293 294 297 298 295 295 294 295 296 296 294 294 293 294 293 294 293 293 292 291 288 288 287 288 289 289 289 290 290 290 290 289 289 289 289 290 292 292 293 293
290 295 292 291 286 285 285 282 284 291 291 292 293 293 293 294 293 293 293 293 293 293 292 292 292 292 292 290 290 288 287 288 288 288 288 288 289 290 288 288 286 287 287 288 289 290 292 293 294
296 293 291 290 287 279 286 285 285 289 293 294 294 294 294 293 293 294 294 294 292 291 291 289 290 290 290 289 288 287 285 286 285 285 285 286 287 288 287 288 286 286 286 286 288 289 289 290 292
292 287 279 277 277 278 288 284 288 293 295 296 294 293 293 293 292 291 291 290 290 289 289 288 288 288 289 288 286 286 286 284 283 283 283 284 285 285 285 286 285 285 286 286 287 287 287 288 288
290 288 281 276 276 279 287 281 286 294 296 296 295 294 293 291 291 289 288 287 288 289 287 286 287 287 288 287 285 285 285 283 284 283 283 283 283 285 285 284 284 285 285 286 286 285 285 286 286
289 284 289 283 283 278 282 286 292 294 292 293 293 292 290 290 289 288 288 287 287 286 285 285 285 286 287 285 284 283 284 283 282 281 281 281 282 283 282 282 282 283 283 284 284 283 283 284 284
290 292 282 283 276 275 279 281 284 291 290 293 289 289 293 292 290 288 287 285 285 285 284 283 284 283 285 283 282 282 283 283 283 282 280 280 280 281 281 280 281 281 281 282 282 281 282 282 283
288 286 287 286 283 277 275 277 291 291 295 291 290 289 287 288 286 286 285 284 284 282 285 282 281 280 282 285 284 283 282 282 283 283 282 281 280 280 280 280 280 279 280 279 279 280 279 279 280
292 288 287 280 279 282 280 280 294 293 297 297 293 292 291 286 285 284 282 282 281 283 283 284 284 283 282 281 284 284 282 279 282 283 283 282 279 280 279 279 279 279 278 278 277 276 277 276 276

GFSSGP_sfc_thetae_162.txt.gz
Theta_e
317 309 307 308 296 294 290 294 297 302 314 323 325 322 317 317 316 310 328 334 330 328 331 335 340 341 343 343 344 347 349 351 352 353 353 352 352 352 352 352 353 353 352 352 352 351 350 349 348
314 311 306 300 292 288 290 299 304 313 321 322 320 322 319 316 321 321 324 328 326 325 326 330 335 337 339 339 341 342 344 345 348 350 352 353 353 352 352 352 351 352 351 351 351 351 351 351 347
309 312 299 296 289 288 290 298 306 315 323 317 312 314 314 316 320 320 324 324 320 319 322 324 329 332 334 335 336 337 339 341 341 343 344 347 349 351 352 351 350 351 351 351 351 351 352 349 346
304 300 299 293 290 294 296 301 307 308 313 315 313 307 312 314 320 320 322 319 317 316 318 325 328 328 328 329 330 331 331 333 336 331 334 338 341 345 347 347 349 351 351 351 351 352 350 347 346
298 296 291 289 291 296 300 303 306 308 314 314 316 309 309 315 319 320 318 317 315 315 316 321 328 327 325 325 325 326 328 331 331 328 330 333 333 336 341 345 346 347 349 350 350 349 348 346 345
294 294 288 285 290 297 300 302 309 309 313 315 312 309 308 317 316 316 317 315 315 314 314 314 321 324 325 325 324 327 329 330 327 325 326 326 327 329 331 332 340 342 344 346 346 346 345 345 344
291 289 286 287 291 295 300 303 302 305 308 311 314 305 309 313 315 315 314 313 311 311 310 309 309 313 319 325 327 328 326 327 322 323 323 323 324 325 326 327 328 331 333 338 343 344 343 343 343
294 291 287 287 291 292 300 303 303 303 303 311 314 304 305 311 314 312 310 309 308 307 307 307 307 307 306 308 323 324 323 321 319 320 320 319 318 320 321 322 324 325 326 327 337 340 340 341 340
296 289 286 288 291 295 300 299 302 304 304 306 309 309 311 313 311 308 306 305 305 306 305 305 305 305 306 309 313 313 318 316 315 315 317 313 310 312 313 317 319 321 323 323 325 327 330 337 337
293 287 289 295 294 294 298 298 302 300 301 304 306 311 312 310 308 305 304 302 302 302 303 303 304 304 305 310 306 306 309 307 307 308 308 308 307 310 312 313 316 317 318 319 320 321 325 329 338
291 290 293 295 295 295 294 296 299 299 295 301 303 306 307 307 305 304 302 302 301 301 302 303 303 303 303 304 303 303 305 304 305 306 307 306 306 306 307 307 308 308 313 311 311 313 314 315 319
292 296 296 296 296 295 294 294 298 295 299 305 306 307 306 302 302 300 300 300 300 300 300 301 302 302 301 302 302 302 303 303 303 304 305 304 304 304 304 304 305 305 305 302 304 306 307 310 314
293 295 297 297 297 295 297 294 298 298 303 305 305 305 301 299 299 299 299 300 299 299 299 300 301 300 301 301 301 301 302 301 302 302 304 303 301 301 302 302 302 301 300 300 300 301 303 305 309
296 295 295 296 296 295 295 294 298 298 301 303 303 298 298 299 298 297 297 297 298 299 299 300 299 299 299 299 299 299 300 300 300 301 302 302 300 299 298 298 298 298 298 299 299 300 301 303 306
297 292 293 294 294 294 294 290 292 300 300 300 299 299 297 298 298 296 296 296 297 297 299 300 300 299 298 297 298 299 299 300 299 299 299 297 298 297 296 296 295 297 298 299 299 299 300 301 303
292 290 286 293 294 295 295 287 293 298 298 296 296 297 297 297 296 295 296 296 296 297 298 298 300 297 296 295 296 297 297 298 297 297 295 295 296 295 294 295 294 295 296 296 297 297 298 298 299
288 283 286 290 294 292 289 287 293 297 298 295 295 295 295 294 294 295 297 296 296 296 296 296 296 295 295 295 295 296 296 295 295 294 293 294 294 294 294 293 293 293 294 294 295 295 296 296 297
283 284 285 286 292 292 290 288 291 295 296 296 294 293 294 293 294 296 297 297 296 295 296 295 295 294 294 294 294 295 294 293 293 292 292 292 293 293 292 292 292 292 291 291 292 293 295 296 296
290 288 286 287 292 291 288 287 290 293 292 292 291 292 293 293 295 296 297 296 296 294 294 294 293 293 292 291 290 290 289 290 290 290 291 291 291 292 291 291 291 290 289 290 291 292 293 294 297
291 287 286 289 293 291 289 287 290 292 294 294 294 292 292 292 294 295 295 294 294 294 294 293 293 292 291 291 290 290 289 290 289 289 289 290 290 290 289 289 288 288 289 290 291 291 291 293 296
288 287 286 287 290 290 288 285 286 293 296 296 295 294 293 292 293 294 294 292 292 291 292 293 293 292 292 291 290 290 289 288 287 287 287 289 289 289 288 288 286 287 288 288 288 290 290 289 293
286 292 291 289 285 281 288 278 285 290 290 292 294 291 291 292 294 294 293 291 291 291 292 292 292 291 290 290 289 287 286 284 285 285 286 287 289 288 288 287 286 287 287 287 287 289 290 291 290
288 293 290 289 284 282 283 281 281 289 289 288 289 291 291 292 293 292 292 292 292 292 289 289 290 290 289 288 287 285 284 284 285 284 284 285 287 287 285 287 286 285 286 286 287 287 287 289 289
293 290 289 288 285 277 285 283 281 287 291 289 290 291 291 291 292 292 292 292 290 289 287 288 288 288 287 286 285 284 283 283 282 281 282 283 285 285 284 285 286 285 285 286 286 286 286 286 287
290 285 278 277 277 277 287 283 284 291 293 292 290 290 291 292 292 292 291 288 288 286 285 287 287 286 286 285 284 284 282 282 280 280 281 281 282 282 282 282 283 283 283 285 285 284 285 285 285
287 287 280 276 277 278 286 280 286 293 293 292 292 291 292 291 290 289 288 287 286 286 285 285 286 285 284 284 283 282 282 280 280 279 279 280 280 280 281 281 281 282 282 283 284 282 282 284 284
287 284 290 284 283 277 281 286 291 293 291 291 291 291 290 290 288 288 288 287 286 285 284 284 285 285 283 282 282 282 281 280 280 279 279 279 280 281 280 280 280 280 280 280 281 280 279 281 282
289 291 281 283 276 274 277 279 279 288 289 291 289 288 289 288 288 287 287 286 285 284 283 282 283 283 282 282 282 282 282 282 282 282 280 279 279 280 280 279 279 279 278 278 278 278 279 278 278
287 284 285 284 282 275 272 276 288 290 292 290 290 289 288 288 286 286 285 284 284 282 281 280 281 278 280 282 283 282 281 282 282 282 280 279 279 279 279 279 279 277 277 276 276 276 276 276 277
290 286 286 278 278 281 278 278 293 292 295 294 291 291 287 287 284 283 283 283 282 282 281 280 281 282 280 281 284 283 281 279 282 282 281 279 278 278 278 278 278 277 276 274 274 274 274 273 274

GFSSGP_sfc_thetae_165.txt.gz
Theta_e
318 309 305 305 295 292 289 293 295 296 313 319 322 319 315 317 316 309 328 330 329 328 332 337 341 341 342 342 344 345 347 349 348 350 352 352 352 351 351 351 352 351 350 350 351 350 349 347 347
314 309 304 298 291 286 288 295 304 310 319 320 317 320 318 314 322 321 324 326 326 326 327 332 336 338 339 339 341 342 343 343 344 346 347 349 351 352 351 351 350 351 350 349 350 350 349 350 347
308 308 298 294 287 286 289 295 304 317 321 314 311 312 314 315 321 321 324 322 320 321 323 325 331 333 335 335 337 338 339 338 334 337 340 341 344 347 348 349 349 350 351 350 350 350 351 349 346
302 299 297 291 288 293 294 299 306 317 316 313 312 308 312 314 320 320 319 317 315 317 321 326 329 330 329 330 331 330 333 332 330 333 335 335 338 340 342 344 346 347 349 349 349 349 349 347 345
297 295 289 288 289 294 297 300 304 308 312 313 314 307 309 314 317 318 317 318 314 314 314 320 327 328 326 326 328 328 330 327 327 328 329 330 332 332 332 333 334 336 336 341 347 348 347 346 344
293 293 286 284 288 294 296 301 307 310 312 313 310 308 308 316 315 316 315 313 313 311 311 310 318 322 326 327 325 327 327 324 324 324 325 326 326 327 328 328 330 330 331 335 340 343 344 344 343
290 288 284 285 289 292 297 301 302 304 306 310 311 304 308 313 315 314 312 311 310 309 308 307 307 312 318 323 323 323 322 321 322 321 320 320 321 321 322 323 324 326 327 328 328 328 333 341 341
292 290 286 285 289 290 297 300 302 303 303 311 313 305 304 310 312 311 310 308 307 307 306 305 305 306 306 308 319 320 318 318 319 318 317 316 316 317 318 319 320 322 323 323 324 325 326 329 336
293 287 284 287 289 293 295 297 301 303 304 305 308 309 311 311 310 307 305 303 304 305 303 303 303 304 305 306 311 311 315 314 314 313 314 310 308 309 310 315 316 317 318 319 319 320 320 320 324
290 286 288 293 292 293 296 297 301 301 301 303 306 310 310 308 305 303 301 300 300 301 301 301 302 302 303 307 303 304 306 305 305 306 305 306 305 307 308 309 312 312 312 311 312 312 313 313 313
290 288 291 294 294 293 293 292 298 298 295 302 304 305 306 305 303 302 301 300 299 300 301 301 300 301 300 301 301 302 302 302 303 303 303 303 303 303 303 303 304 303 305 301 302 302 303 305 307
290 294 294 294 295 294 293 294 296 295 298 304 308 308 305 303 303 300 299 298 298 298 299 300 299 299 299 300 299 300 301 300 301 301 302 300 300 300 300 299 299 299 299 298 299 299 301 303 305
292 294 295 295 295 294 295 293 295 296 302 307 307 306 303 302 299 299 299 298 297 298 298 298 298 297 298 298 298 298 298 299 299 299 300 299 297 297 297 296 297 297 297 297 298 298 299 301 303
294 294 294 294 294 294 293 293 295 296 301 304 305 299 299 297 297 296 297 296 297 298 297 297 297 296 297 296 296 296 297 297 298 296 295 297 296 295 295 295 295 295 295 296 297 296 297 298 301
295 291 292 292 291 292 293 287 293 298 301 301 299 296 296 297 297 297 296 295 296 297 298 297 296 295 295 294 295 295 296 296 295 293 294 294 294 293 294 294 293 293 294 295 295 296 297 296 298
290 288 285 291 293 292 289 285 291 296 299 297 295 295 296 295 294 294 295 295 295 295 295 295 297 294 294 294 294 295 294 293 292 292 292 293 293 293 293 292 291 292 293 293 293 293 293 294 295
287 282 284 289 291 291 288 286 290 294 297 296 294 294 294 292 293 294 295 294 294 294 293 293 293 293 293 293 293 293 292 291 291 291 291 291 292 292 291 291 291 291 290 290 291 292 293 293 294
282 283 283 285 289 291 287 286 289 292 294 294 290 291 291 291 292 294 294 294 294 293 293 293 293 292 292 292 291 291 290 290 290 289 290 290 290 290 289 289 289 289 288 290 291 291 293 293 293
288 286 285 286 290 289 287 286 289 292 291 291 289 290 290 291 293 294 294 293 292 292 292 291 291 291 290 289 289 288 287 287 288 289 289 289 289 288 287 287 286 287 288 288 290 290 290 292 294
289 286 285 288 291 290 287 287 290 289 291 293 291 291 291 290 292 293 292 291 291 291 291 290 290 290 289 288 288 288 287 287 287 288 288 289 288 288 288 285 285 287 287 287 288 288 289 290 293
287 285 285 286 288 287 286 283 286 290 292 293 292 292 291 291 291 292 292 290 289 289 289 290 289 289 289 289 289 288 288 287 286 286 286 287 288 286 286 286 286 285 286 286 286 288 287 287 290
284 290 289 287 284 280 286 277 283 286 289 290 290 290 290 291 292 292 291 289 288 288 289 290 290 289 288 288 287 285 284 282 283 284 284 285 287 285 285 287 286 285 286 286 285 287 286 287 285
287 291 289 288 283 281 281 279 279 289 290 288 288 290 290 290 291 290 290 290 290 289 288 289 289 288 286 286 285 284 282 282 282 282 282 283 284 284 283 284 285 283 284 286 285 284 285 285 285
292 289 287 285 282 276 281 280 279 286 289 288 289 290 291 291 291 291 292 291 289 288 288 287 286 286 286 285 283 282 280 280 279 280 279 280 282 282 281 282 282 282 282 284 284 282 284 284 284
288 284 276 276 276 275 285 282 282 289 291 290 288 288 290 291 290 290 290 288 287 286 286 286 285 284 284 283 282 280 279 278 278 278 279 279 279 279 279 280 280 280 280 282 282 280 282 282 282
286 286 279 276 276 278 284 277 282 290 291 291 291 291 291 291 291 290 289 287 285 286 285 285 284 283 282 282 280 280 279 279 278 278 278 278 279 279 279 279 279 279 279 279 280 279 279 281 280
288 284 289 283 281 276 278 283 289 290 290 289 289 290 289 290 290 290 288 285 285 284 284 284 283 282 282 282 281 280 280 279 279 278 278 278 279 280 279 278 278 278 278 278 278 277 276 278 278
288 291 282 283 276 273 276 279 278 286 287 288 286 287 289 288 287 286 285 284 283 283 283 283 283 281 282 282 281 281 281 280 280 279 278 278 279 279 279 279 277 277 276 276 276 275 276 276 277
287 284 285 283 280 274 272 275 285 288 290 288 289 289 285 287 285 285 284 283 282 279 281 281 281 278 279 281 281 281 281 282 281 279 278 278 278 279 279 279 277 276 275 275 275 275 274 275 275
288 285 284 276 278 280 274 275 288 289 292 292 290 291 288 285 283 281 282 282 280 279 279 280 280 280 278 279 281 282 281 279 281 278 278 277 276 278 278 278 277 276 275 274 273 273 273 272 274

GFSSGP_sfc_thetae_168.txt.gz
Theta_e
319 309 305 305 295 291 288 292 294 296 310 318 320 316 313 315 315 307 329 329 329 329 334 336 341 341 343 343 344 345 346 347 348 349 351 351 351 350 350 351 351 350 350 350 350 349 349 348 346
315 306 303 298 290 285 287 293 298 309 317 317 315 318 316 312 322 322 324 325 325 326 327 332 337 339 340 341 342 342 341 340 342 345 346 347 349 350 350 350 349 349 349 349 348 349 349 350 347
309 305 298 292 286 285 288 294 309 317 319 313 311 312 314 315 321 321 323 321 322 323 324 326 332 334 335 336 336 338 334 335 337 339 340 341 342 344 345 345 347 349 350 350 350 350 350 349 346
300 299 296 291 288 292 292 295 311 316 314 313 312 307 311 316 319 321 317 318 319 321 323 326 330 331 331 331 333 332 330 330 332 333 335 336 336 336 335 336 337 338 339 343 347 348 348 346 345
296 294 289 287 289 292 296 297 313 314 310 311 312 307 308 313 318 316 317 317 313 313 315 318 327 329 328 330 330 327 327 326 327 329 329 330 331 331 331 331 331 332 334 337 339 340 343 344 344
292 291 286 284 287 292 294 298 306 311 311 311 310 308 307 314 313 314 314 313 312 310 309 311 323 326 325 326 326 323 324 324 323 322 323 324 324 324 325 326 327 328 328 329 330 330 331 335 341
291 288 284 284 287 291 295 299 301 305 308 308 312 304 307 311 313 313 311 310 310 309 307 307 309 315 321 322 321 320 321 321 320 319 318 319 319 320 321 321 322 323 324 325 326 326 326 327 332
291 289 286 284 287 289 296 299 300 303 302 312 312 303 304 309 310 308 308 307 307 307 305 305 306 306 305 307 318 318 317 318 317 317 316 315 314 315 316 317 318 319 318 317 318 318 319 320 322
291 287 284 286 288 290 295 295 300 303 303 305 308 310 311 309 307 304 303 304 304 304 302 302 302 303 304 305 310 310 314 313 312 310 312 306 305 306 306 312 313 313 313 312 312 312 312 312 312
290 286 287 291 291 291 293 295 300 300 301 302 305 308 308 306 304 302 301 301 300 300 300 300 300 300 302 305 302 302 304 303 303 303 302 303 301 304 304 305 307 307 308 307 308 308 308 306 304
289 288 290 292 293 292 290 291 296 299 297 302 303 302 303 303 301 301 301 300 299 299 299 299 299 299 299 300 299 300 300 300 301 300 299 299 300 299 299 299 299 299 302 298 299 300 300 302 303
289 293 293 293 294 292 291 293 294 295 296 301 306 305 303 301 300 299 299 297 297 298 297 297 298 298 298 298 298 297 299 298 298 298 297 296 295 296 296 296 296 296 297 296 297 298 299 300 301
290 292 294 294 294 293 293 293 293 295 302 306 307 305 302 301 299 298 298 297 297 296 296 296 296 296 296 296 296 296 296 296 294 294 296 295 293 293 294 294 294 294 294 295 295 296 296 297 299
292 292 293 292 293 292 292 291 294 295 303 305 305 301 301 298 296 296 296 295 296 296 295 295 294 294 295 294 294 294 294 294 292 293 293 294 292 292 293 292 292 292 293 293 294 295 295 296 297
294 290 291 289 290 289 291 287 290 296 302 302 301 299 296 295 297 295 295 295 295 295 295 294 294 293 293 293 293 293 293 292 291 291 292 292 292 291 291 291 290 291 291 291 292 293 293 294 296
289 288 284 289 292 291 288 284 289 295 299 297 295 295 294 293 294 294 295 295 294 293 293 293 296 293 292 292 291 291 291 290 290 290 290 291 291 291 289 290 289 290 289 290 291 292 292 293 294
285 281 284 288 290 290 287 285 289 293 297 292 291 291 291 291 292 293 294 293 293 292 292 291 292 291 291 291 290 289 289 289 289 289 289 289 289 289 288 288 287 288 288 289 291 291 292 291 292
280 282 282 283 288 289 286 286 286 290 294 291 289 289 290 291 291 293 293 292 291 291 291 291 291 291 290 290 289 289 288 288 288 288 288 289 288 288 286 286 286 287 287 289 289 289 291 292 292
286 284 283 285 289 288 287 284 288 290 290 288 289 289 289 291 291 292 292 291 290 290 290 290 290 289 289 288 287 286 285 286 287 287 288 288 287 287 286 285 286 286 286 287 288 289 288 290 292
287 285 283 286 289 288 285 284 288 287 289 289 288 289 289 289 290 291 290 289 289 289 289 288 288 288 288 288 287 287 286 286 286 287 287 288 286 286 287 285 285 286 286 286 286 287 286 288 290
285 284 284 285 286 285 285 283 284 289 291 291 289 291 290 290 289 290 290 288 287 288 288 288 287 287 287 287 287 286 287 286 285 285 285 286 286 285 284 285 285 284 286 285 285 285 285 284 287
282 288 287 286 283 279 284 276 283 286 289 288 287 287 288 290 290 290 289 287 288 287 287 287 288 287 287 287 285 283 282 281 282 283 283 284 285 283 283 283 283 282 284 284 285 284 285 284 283
286 290 288 286 282 279 280 278 279 287 287 286 286 288 288 289 289 289 289 289 288 288 287 287 287 287 286 285 285 283 281 281 282 281 281 281 282 282 281 282 281 281 282 283 281 280 282 283 283
291 287 286 284 281 275 280 279 277 283 288 288 288 289 289 290 290 290 291 290 288 288 288 287 286 285 285 284 282 280 279 279 279 279 279 279 279 279 279 280 280 280 280 280 280 280 281 280 282
286 282 276 275 275 275 282 279 280 287 290 291 287 288 290 292 290 289 288 287 287 287 286 286 284 283 283 281 279 278 277 278 277 278 278 278 278 278 278 278 278 278 279 279 279 279 279 279 279
284 284 278 274 275 277 282 277 280 289 289 290 290 289 290 291 291 290 289 287 287 287 286 285 284 283 281 279 278 278 278 278 278 278 278 278 278 278 279 278 278 278 278 278 278 278 278 279 279
285 282 287 282 280 276 277 281 287 288 288 287 287 288 288 289 288 288 286 285 286 285 285 283 283 282 281 280 279 279 279 278 277 277 278 278 278 279 279 278 277 277 277 277 277 276 276 277 279
285 288 280 281 275 273 276 277 279 285 286 287 285 286 288 287 287 287 285 283 284 284 283 282 282 281 281 280 280 280 279 279 278 278 278 278 278 279 278 277 276 276 276 276 276 276 276 277 279
283 282 283 283 280 274 272 276 284 286 289 286 287 288 285 286 285 285 284 282 282 280 281 281 280 277 279 281 280 280 280 279 278 278 277 277 278 278 278 277 276 276 275 275 275 275 275 275 277
286 283 284 278 276 279 273 277 286 288 289 289 288 290 287 286 284 282 283 281 279 280 280 280 279 279 275 276 280 281 280 278 278 276 276 276 275 277 277 277 276 275 275 274 273 274 273 272 274

GFSSGP_sfc_thetae_171.txt.gz
Theta_e
323 313 314 313 304 302 297 300 301 304 314 322 323 321 320 321 318 314 327 329 332 334 338 341 341 342 343 345 346 347 348 349 350 351 351 351 350 350 350 350 350 350 350 350 349 349 349 348 346
318 311 312 307 300 295 299 300 304 315 320 322 320 321 319 316 323 324 324 325 327 329 333 334 338 341 342 343 341 339 341 343 343 344 345 346 348 349 349 349 349 349 349 349 349 349 350 349 348
313 309 308 303 297 295 298 301 317 319 320 317 316 317 319 317 324 322 324 324 324 325 328 330 335 337 336 338 335 335 336 337 338 339 341 341 341 341 341 341 342 342 345 347 349 349 348 349 347
307 309 304 301 296 300 300 303 316 318 316 317 318 313 315 318 322 323 321 321 321 322 326 329 332 334 335 333 332 332 332 333 334 334 335 336 336 335 334 334 335 336 338 340 340 341 343 345 345
305 305 300 297 297 300 301 303 309 318 316 315 316 311 312 316 319 319 318 318 316 317 322 327 331 331 332 328 328 328 327 327 328 329 329 329 330 330 329 329 330 330 332 333 333 333 333 334 339
302 301 297 295 295 298 300 304 311 317 314 314 314 314 313 317 316 316 315 313 313 313 318 322 326 326 326 325 325 325 324 323 322 323 324 324 324 324 324 325 326 326 326 326 326 325 326 327 330
300 299 295 293 294 297 300 304 311 312 313 313 317 312 312 315 315 314 312 311 311 311 313 315 317 321 322 321 321 321 321 320 320 319 318 318 318 319 320 320 321 320 319 319 319 319 319 320 321
300 300 293 294 295 297 300 304 307 309 308 316 315 311 311 315 313 311 310 308 308 309 311 312 314 314 317 319 319 318 317 316 316 315 314 313 313 313 314 315 315 315 314 315 315 314 315 315 315
299 297 293 294 294 298 301 302 306 309 311 309 310 313 315 312 311 309 307 305 306 306 308 311 312 313 312 312 312 313 313 311 310 310 310 308 310 310 309 310 310 311 310 309 310 311 310 310 310
299 296 295 298 298 298 299 300 305 307 307 307 308 310 311 311 309 307 306 303 303 303 304 308 309 309 310 308 309 309 309 308 307 307 307 307 307 306 305 306 306 305 306 306 306 306 307 307 309
296 297 297 298 299 298 298 298 303 305 305 309 309 307 309 309 308 307 306 305 304 303 305 306 307 308 308 308 307 307 306 305 305 304 304 304 303 304 304 303 303 303 303 303 303 304 305 306 307
296 298 298 299 298 298 298 300 300 303 303 305 312 310 309 308 307 305 304 303 303 304 304 305 306 306 306 305 305 305 303 302 301 302 302 301 301 301 301 301 301 301 301 301 302 302 303 304 305
295 296 298 299 298 297 297 298 299 299 304 310 310 308 308 308 305 305 304 303 303 302 303 303 304 304 304 304 303 302 301 300 300 300 300 300 299 299 299 299 299 298 299 299 299 300 301 302 302
296 296 297 297 297 297 296 296 298 300 308 308 307 307 307 305 303 302 303 302 302 302 301 302 302 303 303 302 302 300 299 299 298 298 298 299 298 297 298 298 297 297 297 298 298 298 299 300 301
297 294 296 296 296 296 296 294 295 299 307 306 305 305 303 302 302 302 303 302 302 301 301 301 301 302 301 300 299 298 297 297 296 296 297 297 297 296 296 296 296 296 296 297 299 299 299 299 300
294 293 290 294 296 295 295 292 295 301 306 304 303 302 301 301 302 302 302 302 302 301 300 300 300 299 299 298 297 296 296 296 296 296 296 295 295 295 295 294 294 295 296 296 296 296 297 297 298
290 288 288 292 296 295 295 292 295 300 303 300 301 300 299 298 299 300 302 301 300 299 299 298 299 298 297 296 296 296 295 295 295 295 295 294 294 294 293 293 293 294 295 295 294 295 295 295 296
286 288 289 290 294 295 294 294 296 297 301 301 300 299 298 298 298 299 299 298 298 298 298 298 298 297 296 296 295 295 294 294 294 294 293 293 293 293 293 293 292 293 293 293 293 293 295 295 294
291 289 289 292 295 292 293 292 295 296 297 297 298 297 297 297 298 298 297 297 296 297 297 297 297 296 296 296 295 293 292 293 293 293 292 291 291 292 292 292 292 293 292 291 292 291 291 293 293
291 289 289 292 293 292 292 291 295 294 295 296 296 295 296 295 296 296 296 296 296 295 295 295 295 295 295 296 294 294 293 292 292 292 291 290 289 289 289 289 289 290 290 290 290 289 289 291 292
290 288 288 289 291 292 290 290 291 293 294 294 295 297 297 297 295 295 295 295 295 294 294 294 294 294 294 294 293 292 292 291 290 289 289 288 288 288 288 288 288 288 289 288 288 287 287 285 290
286 291 290 289 288 285 290 283 289 291 293 292 292 294 295 295 296 295 294 294 294 293 293 293 293 293 292 292 291 289 289 287 287 288 287 287 286 286 287 287 287 288 288 287 287 286 286 286 285
289 292 290 290 288 286 286 284 288 290 291 292 291 292 293 295 295 294 295 295 294 292 292 292 292 291 290 289 289 288 286 286 286 286 285 285 285 285 285 286 286 286 287 287 286 286 286 285 284
293 290 289 288 287 281 286 285 285 287 291 293 291 292 293 293 294 295 296 295 293 293 292 291 290 288 288 287 286 285 285 285 284 284 284 284 284 284 284 285 285 285 285 285 285 286 286 285 283
291 288 282 280 280 279 285 283 286 289 294 294 294 293 293 294 294 294 293 292 292 291 291 289 288 287 285 284 284 284 284 284 283 283 283 283 283 283 283 283 283 283 284 284 285 285 285 284 283
288 288 282 275 277 281 285 282 288 293 294 293 294 295 294 294 295 295 294 293 291 291 291 290 288 286 283 283 283 283 284 284 284 283 283 283 283 282 283 282 282 283 283 283 283 284 284 284 284
287 285 290 284 283 280 284 287 290 293 293 291 292 292 293 294 295 294 293 292 292 291 291 289 288 285 284 284 284 283 284 283 283 283 284 283 283 282 282 282 282 282 282 282 283 282 282 284 284
290 292 284 285 277 276 281 282 284 289 292 293 290 290 293 294 294 294 293 292 292 292 291 289 288 286 285 285 285 284 283 283 283 284 283 282 282 282 281 281 281 281 281 282 282 281 282 283 283
287 286 286 286 285 278 277 281 290 291 293 293 295 292 288 294 289 293 292 291 291 287 289 288 287 285 285 286 285 284 283 283 283 283 283 283 283 282 281 280 280 280 280 281 281 281 280 281 281
289 286 287 281 279 282 281 280 291 294 295 294 295 294 293 292 292 287 289 288 285 288 288 287 287 285 284 285 286 285 283 282 282 282 282 282 282 282 281 280 280 279 279 279 279 279 279 278 279

GFSSGP_sfc_thetae_174.txt.gz
Theta_e
327 321 323 321 308 307 303 304 312 311 315 326 325 323 320 326 321 317 328 332 342 342 341 342 343 344 346 347 347 347 350 351 351 351 351 351 351 350 350 350 349 348 348 349 349 349 349 348 346
322 318 320 317 305 301 303 308 308 318 321 327 326 326 324 322 329 325 325 327 336 340 339 340 342 344 343 340 342 343 344 345 345 346 348 348 348 347 346 345 345 347 348 348 347 348 348 347 348
319 317 312 310 306 301 303 307 312 322 325 325 322 326 326 323 328 325 325 325 329 332 334 337 338 341 338 338 338 338 338 340 341 342 342 342 342 341 340 339 339 341 343 343 345 345 346 347 347
314 315 313 304 303 305 305 309 309 321 322 325 326 321 323 326 328 331 324 324 325 328 332 334 336 336 335 335 334 336 335 335 336 336 337 337 336 336 335 334 334 336 337 337 337 336 336 337 340
315 312 305 303 303 305 308 308 308 317 321 321 325 319 320 322 325 323 321 320 324 327 332 333 333 331 331 331 330 329 329 330 330 330 331 331 330 330 329 329 329 329 328 329 329 329 329 329 332
308 310 302 301 302 305 307 311 312 315 320 320 321 321 320 322 320 317 317 315 319 327 329 327 327 326 326 327 326 325 324 324 325 325 324 325 324 324 325 324 322 322 322 321 322 321 322 323 325
307 305 302 301 301 303 306 311 314 316 318 319 324 319 320 319 319 315 312 314 316 319 322 324 325 324 323 323 322 322 321 320 320 319 319 318 319 319 318 318 318 318 317 317 317 317 317 317 317
309 307 302 302 301 301 305 309 316 316 316 323 324 318 317 322 317 315 313 312 313 315 317 318 323 322 324 323 319 317 317 316 316 315 314 314 315 314 314 314 313 314 313 313 313 313 313 313 313
309 303 301 301 301 303 305 307 313 315 317 320 320 319 323 321 317 316 313 311 311 311 313 316 317 321 321 319 317 315 314 313 313 313 312 315 316 316 315 310 309 310 310 310 310 310 310 310 314
305 303 302 305 305 303 303 304 309 311 314 315 315 319 324 320 319 317 315 311 309 307 309 314 317 317 317 314 318 317 315 315 314 314 314 314 315 312 310 309 307 307 308 308 309 309 310 313 315
306 302 304 303 304 305 304 304 309 308 308 312 315 316 319 319 320 318 316 312 307 307 309 312 316 316 315 315 315 314 313 313 312 312 312 313 312 312 312 312 311 311 309 310 310 311 311 312 313
302 305 304 304 304 303 303 306 304 306 307 311 316 318 318 319 319 319 314 312 310 309 309 312 314 314 315 314 313 312 311 311 310 309 310 310 310 310 310 309 309 308 308 309 309 309 310 311 311
301 303 304 305 304 304 304 304 304 305 308 312 316 317 317 319 319 318 315 312 311 308 310 311 312 312 312 312 311 310 309 308 308 308 308 308 307 308 308 308 307 307 307 307 307 308 308 309 309
301 301 302 303 303 303 301 304 301 304 309 311 313 314 317 318 317 314 311 309 309 308 310 310 310 311 311 310 310 308 308 308 307 306 306 306 306 306 306 306 305 305 306 306 307 307 306 307 308
302 298 301 301 301 300 301 299 300 303 309 309 311 314 316 316 314 312 311 309 307 309 309 309 309 310 309 308 307 307 306 306 305 304 305 304 304 305 305 304 304 304 305 306 306 306 307 306 307
299 299 295 300 301 300 300 295 300 305 307 308 310 311 312 312 311 312 311 310 309 308 308 307 306 308 307 307 306 305 305 305 304 304 304 303 303 303 304 303 302 303 304 304 304 304 304 304 305
297 294 294 296 301 300 300 297 301 306 307 307 309 310 310 309 310 309 309 309 308 308 307 307 307 306 305 305 304 304 304 303 303 303 302 302 302 302 302 302 302 303 303 302 302 302 303 303 303
293 293 295 295 299 300 299 299 303 303 305 306 309 310 310 308 307 308 308 307 307 307 307 306 305 305 305 304 304 303 303 302 302 301 300 300 300 300 301 301 301 302 301 301 301 300 302 303 301
295 294 293 297 300 297 297 298 300 303 303 305 307 309 310 310 309 307 306 306 306 306 306 305 305 304 305 304 303 303 301 300 300 299 298 298 298 299 299 299 299 300 299 299 299 299 299 301 301
295 293 294 297 298 296 297 297 300 302 302 303 305 307 308 309 305 305 305 305 305 304 303 303 303 303 304 306 303 302 301 299 299 298 297 296 296 297 296 297 297 298 298 298 297 297 296 298 299
294 292 293 292 296 298 296 294 298 299 300 301 302 305 307 307 305 303 303 304 304 303 302 301 302 302 301 301 300 299 298 299 298 297 296 293 294 294 295 295 296 296 296 295 295 295 295 294 297
290 296 294 293 292 289 295 288 295 298 298 299 300 303 304 305 306 304 303 302 303 302 301 301 301 300 300 299 299 297 298 296 295 295 294 292 292 292 293 294 294 295 295 295 295 295 295 294 292
292 295 294 294 292 292 292 288 293 295 294 298 300 301 303 305 305 303 302 302 302 301 300 299 298 296 296 296 295 295 293 293 294 293 291 291 292 291 291 293 293 293 293 294 294 294 293 292 290
297 294 293 294 292 285 290 290 290 293 294 298 299 300 301 302 303 303 303 303 300 300 299 298 297 295 294 293 292 292 292 291 292 292 292 291 291 291 291 291 291 291 292 292 292 293 292 291 290
295 292 285 284 284 284 290 287 291 295 298 299 300 301 302 302 302 302 302 301 300 299 299 297 296 293 291 290 290 291 291 291 290 291 291 290 290 290 289 290 290 290 290 290 291 291 291 290 288
293 292 286 279 281 284 290 285 292 298 299 300 300 302 302 301 302 302 303 302 300 299 299 297 295 293 291 290 290 291 290 291 291 290 290 290 289 288 289 289 289 289 289 290 290 290 290 291 291
292 289 294 288 288 284 287 291 296 297 298 299 299 300 301 301 302 302 303 302 301 300 299 298 296 292 291 290 290 290 290 290 289 289 289 289 289 287 288 288 288 288 289 289 289 289 289 290 290
293 295 287 288 279 279 285 287 289 293 294 298 298 296 301 302 302 302 302 301 301 301 300 298 296 292 291 291 291 290 290 289 290 290 288 288 288 287 287 287 287 287 288 288 288 288 288 288 288
291 289 290 289 287 281 280 285 294 293 296 298 301 301 292 302 301 302 302 301 301 297 299 297 295 290 291 291 290 290 289 289 289 289 289 288 287 287 286 286 286 285 285 287 286 285 286 286 286
293 290 290 285 283 286 285 285 296 296 298 299 300 301 302 300 301 291 301 300 295 297 297 296 295 290 288 291 291 290 288 289 288 288 288 288 287 286 286 285 285 284 284 283 284 284 282 282 283